Weather History for KAND - December, 2012

Change the Weather History Date:

Wednesday, December 12, 2012

  Actual Average Record
Temperature  
Mean Temperature 46 °F -  
Max Temperature 48 °F 55 °F 77 °F (2007)
Min Temperature 44 °F 36 °F 7 °F (1962)
Degree Days  
Heating Degree Days 19    
Moisture  
Dew Point 36 °F    
Average Humidity 67    
Maximum Humidity 77    
Minimum Humidity 58    
Precipitation  
Precipitation 0.01 in - - ()
Sea Level Pressure  
Sea Level Pressure 30.21 in    
Wind  
Wind Speed 9 mph (NE)    
Max Wind Speed 14 mph    
Max Gust Speed 22 mph    
Visibility 10 miles    
Events Rain    
Averages and records for this station are not official NWS values.
T = Trace of Precipitation, MM = Missing Value Source: NWS Daily Summary

Daily Weather History Graph

Daily Weather History Graph

Search for Another Location

Airport or City:

Trip Planner

Search our weather history database for the weather conditions in past years. The results will help you decide how hot, cold, wet, or windy it might be!

Date:

Astronomy

Dec. 12, 2012 Rise Set
Actual Time 7:28 AM EST 5:21 PM EST
Civil Twilight 7:00 AM EST 5:49 PM EST
Nautical Twilight 6:29 AM EST 6:20 PM EST
Astronomical Twilight 5:58 AM EST 6:51 PM EST
Moon 6:32 AM EST (12/12) 4:56 PM EST (12/12)
Length of Visible Light 10h 48m
Length of Day
9h 52m
Waning Crescent, 1% of the Moon is Illuminated
Dec 12
Waning Crescent
Dec 13
New
Dec 20
First Quarter
Dec 28
Full
Jan 4
Last Quarter

Hourly Weather History & Observations

Time (EST) Temp. Windchill Dew Point Humidity Pressure Visibility Wind Dir Wind Speed Gust Speed Precip Events Conditions
12:56 AM 46.0 °F 41.9 °F 35.1 °F 66% 30.13 in 10.0 mi NE 8.1 mph - N/A   Clear
1:56 AM 46.0 °F 41.9 °F 34.0 °F 63% 30.14 in 10.0 mi NE 8.1 mph - N/A   Clear
2:56 AM 46.0 °F 42.5 °F 34.0 °F 63% 30.15 in 10.0 mi NE 6.9 mph - N/A   Clear
3:56 AM 45.0 °F 40.6 °F 34.0 °F 65% 30.15 in 10.0 mi NE 8.1 mph - N/A   Scattered Clouds
4:56 AM 45.0 °F 40.1 °F 34.0 °F 65% 30.16 in 10.0 mi NE 9.2 mph - N/A   Overcast
5:56 AM 45.0 °F 42.6 °F 34.0 °F 65% 30.17 in 10.0 mi NE 4.6 mph - N/A   Partly Cloudy
6:56 AM 44.1 °F 39.5 °F 35.1 °F 71% 30.17 in 10.0 mi NE 8.1 mph - N/A   Scattered Clouds
7:56 AM 46.0 °F 40.6 °F 32.0 °F 58% 30.17 in 10.0 mi NE 11.5 mph - N/A   Clear
8:56 AM 46.0 °F 40.2 °F 33.1 °F 61% 30.20 in 10.0 mi NE 12.7 mph - 0.00 in Rain Light Rain
9:56 AM 48.9 °F - 35.1 °F 59% 30.23 in 10.0 mi NE 8.1 mph 17.3 mph 0.00 in   Scattered Clouds
10:06 AM 48.2 °F - 35.6 °F 62% 30.23 in 10.0 mi ENE 11.5 mph 19.6 mph N/A   Mostly Cloudy
10:45 AM 48.2 °F - 35.6 °F 62% 30.22 in 10.0 mi ENE 13.8 mph 20.7 mph 0.00 in   Mostly Cloudy
10:56 AM 48.9 °F - 36.0 °F 61% 30.23 in 10.0 mi NE 11.5 mph 20.7 mph 0.00 in Rain Light Rain
11:17 AM 48.2 °F - 35.6 °F 62% 30.24 in 10.0 mi ENE 10.4 mph - 0.00 in   Overcast
11:56 AM 48.0 °F - 37.9 °F 68% 30.24 in 10.0 mi ENE 10.4 mph - 0.00 in Rain Light Rain
12:18 PM 48.2 °F - 39.2 °F 71% 30.23 in 10.0 mi ENE 11.5 mph - 0.00 in Rain Light Rain
12:56 PM 46.9 °F - 39.0 °F 74% 30.21 in 9.0 mi ENE 9.2 mph - 0.00 in Rain Light Rain
1:56 PM 46.9 °F - 39.9 °F 77% 30.20 in 10.0 mi ENE 9.2 mph - 0.01 in   Mostly Cloudy
2:48 PM 46.4 °F 41.1 °F 39.2 °F 76% 30.20 in 10.0 mi ENE 11.5 mph - N/A   Overcast
2:56 PM 46.9 °F - 39.0 °F 74% 30.20 in 10.0 mi NE 10.4 mph - N/A   Overcast
3:56 PM 46.9 °F - 37.9 °F 71% 30.21 in 10.0 mi ENE 10.4 mph - N/A   Overcast
4:56 PM 46.9 °F - 37.9 °F 71% 30.24 in 10.0 mi ENE 5.8 mph - N/A   Overcast
5:56 PM 46.9 °F - 37.9 °F 71% 30.23 in 10.0 mi ENE 6.9 mph - N/A   Overcast
6:56 PM 46.9 °F - 37.9 °F 71% 30.22 in 10.0 mi ENE 9.2 mph - N/A   Overcast
7:56 PM 46.9 °F - 37.0 °F 68% 30.27 in 10.0 mi NE 4.6 mph - N/A   Overcast
8:13 PM 46.4 °F 41.9 °F 35.6 °F 66% 30.25 in 10.0 mi NE 9.2 mph - N/A   Overcast
8:56 PM 46.9 °F - 34.0 °F 61% 30.25 in 10.0 mi ENE 12.7 mph 21.9 mph N/A   Overcast
9:04 PM 46.4 °F 40.4 °F 35.6 °F 66% 30.23 in 10.0 mi NE 13.8 mph 18.4 mph N/A   Overcast
9:56 PM 46.9 °F - 35.1 °F 63% 30.27 in 10.0 mi ENE 12.7 mph - 0.00 in   Overcast
11:56 PM 45.0 °F 38.9 °F 34.0 °F 65% 30.26 in 10.0 mi ENE 12.7 mph - N/A   Overcast